Presure
104 149 131 117 129 124 139 142 133 150 127 152 137 142 144 126 148 124 128 127 117 150 134 103 155 115 135 131 126 142 122 135 141 142 137 126 135 150 154 153 126 156 167
134 131 90 149 140 110 87 126 151 143 149 118 154 157 153 119 108 127 131 131 106 154 149 140 140 143 79 104 145 135 122 149 134 132 132 131 127 94 135 126 141 132 149
137 97 121 131 145 124 131 153 129 151 153 132 153 160 145 133 158 153 133 136 139 140 120 141 143 145 150 133 145 119 128 130 131 142 130 127 131 146 128 119 116 142 113
154 94 159 151 133 137 135 137 119 129 151 141 150 163 131 149 162 133 161 126 135 128 140 118 113 114 126 109 84 124 133 129 137 134 122 147 139 107 122 114 149 133 153
96 127 125 132 161 142 123 141 151 133 135 152 158 159 151 145 155 150 134 139 139 134 144 140 154 139 143 124 127 136 131 141 159 132 138 134 129 129 140 128 142 114 109
121 126 146 83 135 156 111 117 143 135 92 147 153 157 159 151 158 143 96 134 146 107 137 104 128 146 152 157 148 124 115 147 145 142 159 127 126 138 129 132 111 149 137
141 146 82 142 141 131 150 131 158 124 147 147 144 158 146 165 154 160 134 148 154 133 111 99 135 83 151 121 97 146 146 106 137 148 128 122 133 138 136 117 126 120 140
114 81 135 130 156 140 151 150 141 157 130 138 153 158 159 158 160 133 145 154 159 116 117 122 134 124 137 124 129 132 122 116 110 109 141 138 115 148 84 120 132 134 135
132 139 112 91 106 136 136 138 140 122 158 139 132 160 152 153 156 127 145 159 154 139 153 127 114 141 84 103 120 129 109 109 116 108 121 128 125 129 143 146 139 134 136
116 158 186 146 150 117 114 141 140 143 123 148 146 134 158 159 134 133 148 139 142 148 152 159 140 120 117 142 146 154 109 136 103 116 115 141 151 137 156 151 96 78 83
127 128 121 106 120 167 186 126 151 108 144 119 144 129 156 160 144 133 154 155 145 158 146 153 135 117 128 124 132 147 141 148 132 127 129 127 137 127 147 137 135 91 134
133 123 149 94 156 122 120 91 132 105 126 146 127 146 127 148 164 148 150 166 142 156 120 146 134 124 130 123 142 151 131 137 148 118 142 128 126 129 148 139 128 107 99
155 173 133 163 121 128 168 137 173 116 114 135 138 154 137 137 143 150 144 125 137 150 98 158 108 134 129 117 129 125 121 127 103 113 140 136 109 112 93 131 103 93 122
163 156 177 182 138 104 133 149 143 82 122 121 141 99 157 134 147 135 151 153 127 146 144 159 131 142 138 130 101 149 103 117 144 101 118 122 127 100 138 139 143 99 133
205 226 114 112 102 167 131 132 119 155 93 142 97 146 130 153 142 164 131 141 160 139 151 159 144 139 120 131 134 130 115 136 124 114 103 134 139 135 128 85 142 150 125
139 243 266 198 140 133 175 138 175 133 155 125 74 104 87 144 153 144 151 131 142 137 153 138 135 156 144 137 135 134 133 132 143 128 124 150 127 127 134 98 148 147 160
252 228 177 135 165 198 134 166 139 147 140 155 147 86 115 110 105 121 148 144 126 132 146 140 142 133 144 152 150 138 140 130 97 150 137 136 138 138 133 159 143 145 122
210 176 241 273 233 129 196 159 149 138 141 140 92 166 90 114 95 119 106 142 143 142 129 138 136 144 141 135 149 136 135 134 133 131 134 142 136 138 137 136 146 128 144
536 461 182 252 191 141 136 138 174 131 147 152 162 146 135 79 116 160 132 132 121 140 142 132 134 139 148 160 151 138 136 136 134 137 140 136 135 137 140 138 110 139 143
318 530 178 274 261 232 227 127 117 171 128 155 166 117 119 107 87 90 112 147 138 118 127 129 130 133 136 145 134 135 141 146 149 147 143 142 144 145 151 82 142 147 135
553 564 164 186 224 242 137 195 192 178 148 174 128 127 130 134 101 83 159 119 109 105 106 128 140 131 134 134 134 150 135 130 131 146 127 130 141 127 136 135 147 146 151
440 547 580 413 220 252 134 201 209 131 180 135 165 164 132 135 121 154 82 108 120 161 107 108 102 140 142 144 130 135 140 150 131 129 129 136 138 136 150 132 144 124 149
379 526 559 557 254 203 234 165 198 143 154 125 150 167 148 161 122 143 141 93 139 141 164 103 158 148 112 121 141 136 146 138 134 148 154 147 142 143 149 133 150 126 145
318 397 555 564 390 258 243 223 203 136 197 153 157 173 131 137 132 140 130 133 85 122 154 128 145 129 147 124 140 119 136 142 145 142 131 140 143 144 150 147 150 127 127
284 348 394 562 571 283 248 233 213 154 202 133 180 171 166 158 130 119 122 153 110 96 83 101 132 85 185 154 143 141 140 141 139 149 143 146 137 120 147 137 148 148 148
279 323 294 485 568 351 261 239 224 204 169 211 176 166 115 167 169 146 152 131 147 140 134 105 141 84 139 85 104 142 149 140 138 135 150 147 142 133 147 82 133 90 93
Wind_Speed
31 45 37 36 39 36 35 36 34 35 29 37 35 35 35 30 35 26 26 26 20 32 24 16 26 14 15 12 7 13 8 15 20 26 29 12 20 38 44 38 25 21 12
51 46 28 47 47 34 26 38 38 37 37 28 40 42 41 27 25 28 29 29 20 26 33 27 24 23 9 16 14 10 8 17 15 21 22 23 19 9 15 8 31 16 24
56 38 44 50 50 43 44 36 38 39 42 35 41 43 38 35 39 36 32 32 30 28 18 31 28 28 27 12 16 16 10 9 14 20 21 25 33 37 18 9 4 34 20
54 39 55 55 49 50 49 45 38 40 40 39 43 46 36 39 40 34 36 31 31 30 34 24 21 16 16 16 8 13 7 6 13 16 19 20 30 17 19 22 42 25 30
44 57 51 55 58 54 47 50 46 44 42 42 45 47 44 40 43 42 37 36 36 33 31 30 37 27 27 14 13 12 8 14 23 18 17 19 25 18 33 31 34 4 14
56 60 65 37 57 60 41 45 48 48 32 41 45 48 46 45 43 44 28 38 42 27 37 25 25 35 37 39 29 11 21 20 16 17 17 19 25 24 27 33 10 38 40
69 71 41 64 60 57 62 56 52 47 48 49 45 47 43 48 43 47 40 45 45 37 30 23 38 19 38 30 15 22 22 13 13 17 15 20 20 19 26 8 37 13 40
63 41 71 59 68 63 64 64 61 53 54 50 51 49 47 48 46 43 46 50 48 35 34 30 39 22 25 20 30 27 15 20 23 13 16 16 20 22 6 18 31 30 36
77 72 60 50 51 61 66 63 63 54 57 57 51 50 51 50 51 45 48 51 51 43 52 41 31 42 20 23 25 18 23 22 25 25 15 18 20 18 20 18 22 26 28
71 91 98 79 73 62 58 70 67 67 57 61 58 56 54 55 51 50 50 48 48 50 50 50 44 28 30 42 40 39 19 16 24 25 26 19 20 18 14 15 12 2 9
77 73 72 61 66 76 76 63 74 54 67 57 64 57 61 58 58 54 56 54 53 53 48 51 47 34 30 24 25 33 25 30 21 23 23 23 17 23 17 17 17 10 26
79 73 89 56 87 72 70 49 71 59 64 70 65 70 58 64 61 62 57 55 55 53 42 51 48 44 36 36 41 42 27 32 24 26 21 23 22 22 18 21 23 18 9
101 101 92 86 77 82 92 82 73 67 65 73 74 74 67 63 62 64 59 52 58 58 32 58 33 48 45 39 32 31 32 32 31 23 22 24 31 29 12 27 11 9 34
76 101 114 112 92 69 85 84 83 43 75 74 79 51 77 68 69 62 64 61 56 62 58 57 49 59 56 41 33 49 31 36 34 29 34 33 31 15 22 21 22 21 23
98 108 88 71 59 104 80 89 83 80 53 80 55 78 71 78 72 72 62 63 66 60 60 60 57 58 45 46 41 39 40 39 39 37 32 31 32 30 25 11 24 26 20
64 100 119 111 92 100 110 97 99 88 88 81 36 66 43 77 80 71 72 64 65 61 63 55 53 65 61 52 49 46 43 40 42 40 38 41 37 34 32 20 32 28 27
98 93 71 103 110 128 103 101 98 95 97 93 92 49 75 69 61 64 75 71 60 59 63 59 57 54 59 67 66 53 48 45 29 48 45 43 40 39 34 38 32 28 41
87 77 94 127 124 105 134 109 99 107 96 99 59 94 51 74 54 68 62 73 72 67 60 60 59 58 57 54 65 53 51 49 49 47 45 49 44 42 41 35 35 34 31
39 62 75 111 117 112 99 106 120 105 107 96 98 95 73 43 76 85 78 75 67 72 67 64 62 62 62 68 66 57 55 55 52 54 54 49 48 45 44 42 29 37 34
29 43 83 123 135 131 128 107 88 127 101 105 107 81 84 80 54 53 66 88 80 61 63 65 64 64 62 63 59 59 62 65 65 63 59 58 56 52 50 23 46 45 35
27 29 86 96 112 135 111 130 135 132 109 118 105 100 93 91 75 55 95 66 65 59 60 66 71 64 64 63 61 68 64 59 58 63 55 54 54 42 46 43 50 47 43
35 26 30 83 106 139 102 122 138 119 131 118 121 111 102 98 84 97 51 73 76 91 63 61 58 73 73 71 67 66 67 71 64 62 57 56 53 50 55 41 50 31 48
49 26 27 38 127 103 139 118 123 113 121 109 118 122 107 106 97 105 88 62 90 82 90 62 80 80 63 66 74 69 73 72 67 71 68 64 60 58 57 45 56 33 48
51 40 29 33 107 142 140 138 130 116 139 125 124 132 92 93 92 107 97 93 51 80 87 80 79 76 84 70 80 65 74 75 73 71 63 65 61 58 59 52 57 32 20
35 54 32 35 40 146 141 141 135 117 136 124 138 126 126 110 104 90 86 104 85 71 53 63 87 48 80 89 84 82 80 79 76 75 72 70 62 46 59 57 59 60 57
44 47 27 32 40 123 149 144 141 135 125 137 134 131 88 131 125 111 116 100 104 104 92 75 92 53 83 49 62 80 85 81 79 73 77 72 69 62 66 42 55 41 49
Wind_Direction
230 212 216 226 219 222 217 213 221 222 215 218 221 221 218 214 212 215 224 225 203 228 247 224 245 211 243 243 245 259 242 299 301 307 323 343 335 333 333 348 7 53 42
221 220 209 207 211 228 200 220 214 222 227 219 220 220 216 224 221 218 223 229 223 226 239 248 242 241 186 237 253 234 258 283 301 310 320 315 326 303 349 121 347 7 13
220 215 224 218 209 222 222 208 220 215 227 228 227 224 222 230 219 218 219 227 229 227 214 246 249 247 249 223 255 255 260 286 307 308 312 319 326 329 315 120 337 354 9
224 224 214 217 215 215 221 220 216 223 220 223 229 227 225 222 217 231 214 229 223 242 242 234 217 202 240 232 214 229 239 286 302 303 312 311 320 300 325 334 348 349 11
223 223 227 221 219 219 224 221 214 219 223 224 226 228 226 225 217 222 231 224 226 233 237 243 253 246 249 211 200 237 234 290 289 298 297 309 316 309 332 329 349 150 355
221 233 216 227 218 219 232 221 217 219 218 223 226 226 226 225 223 227 207 234 217 218 234 232 239 254 257 258 251 205 254 285 289 296 300 306 309 324 323 327 232 347 341
218 215 232 221 222 223 220 222 213 222 215 223 227 229 227 231 225 217 232 222 216 235 231 210 249 217 264 260 236 253 263 267 272 279 287 304 303 321 321 267 321 329 340
227 226 227 233 223 225 220 221 224 213 224 216 227 231 226 225 225 224 227 219 218 226 219 225 244 214 245 214 253 263 261 262 277 245 278 277 309 319 235 284 319 331 334
221 211 230 235 214 224 226 224 222 230 212 219 217 225 226 227 223 229 220 222 221 232 217 222 223 250 226 236 216 207 239 268 282 286 278 275 287 285 313 316 313 323 330
237 246 247 212 221 223 225 223 225 224 226 219 218 219 223 226 221 224 220 224 227 228 219 219 227 214 222 258 264 267 234 230 282 272 281 295 319 292 330 319 271 308 334
227 239 235 233 228 235 223 223 220 222 226 229 224 224 219 222 219 222 218 217 223 222 225 219 220 224 228 227 244 262 252 267 234 239 257 262 283 290 302 296 302 299 313
221 234 209 236 235 225 223 226 224 223 226 226 227 227 224 220 223 219 220 216 222 223 229 221 218 230 233 228 255 263 241 262 249 266 256 261 284 267 309 292 300 297 247
230 235 230 236 232 234 240 219 232 227 225 226 229 227 228 226 226 218 221 226 224 221 240 222 234 233 236 230 239 234 238 242 260 265 248 250 286 290 258 277 256 218 309
235 223 234 237 221 225 226 213 221 231 229 230 228 232 226 229 222 229 218 217 230 221 222 221 226 219 236 236 243 248 239 236 271 266 253 253 251 253 273 287 291 288 292
239 233 230 238 242 227 216 225 233 213 233 227 227 226 228 227 229 223 230 226 216 225 222 219 221 222 238 241 244 237 241 252 246 240 267 257 265 262 268 271 279 291 293
237 227 227 232 241 219 233 225 226 226 223 229 231 227 235 230 229 229 227 232 230 229 221 225 229 219 229 239 242 244 244 254 258 254 268 274 256 271 265 266 284 282 293
233 241 233 216 223 227 219 226 221 218 221 229 228 229 226 226 230 225 230 231 235 235 229 234 231 234 229 230 236 245 249 247 252 264 259 264 266 265 261 285 280 281 281
246 224 229 218 223 223 226 218 214 227 220 226 230 231 227 228 238 228 227 238 236 233 238 241 242 235 238 242 237 244 248 248 253 255 257 263 264 268 270 269 279 266 283
253 231 216 219 221 222 230 214 226 230 219 230 227 225 229 229 230 232 230 230 228 232 231 236 240 244 236 233 239 247 249 251 251 256 261 261 263 268 275 278 273 278 283
256 245 217 213 211 219 220 231 248 227 237 220 224 231 231 234 231 231 231 234 235 230 231 237 238 238 241 243 248 246 249 249 251 255 258 262 266 270 274 256 282 285 279
280 276 229 220 213 214 225 220 224 228 218 228 235 237 230 230 234 235 235 231 235 230 229 233 237 243 241 243 246 244 252 251 254 255 254 256 262 265 271 274 279 284 286
333 283 270 222 219 210 226 218 219 230 227 227 229 228 232 230 233 232 231 235 238 233 234 231 234 239 242 242 244 246 250 250 250 252 256 261 264 266 271 269 278 269 288
346 297 270 248 215 219 214 219 217 222 230 236 227 232 235 226 235 230 231 228 232 235 236 236 239 240 239 241 243 245 248 251 253 256 258 261 263 267 270 269 275 269 283
355 333 272 259 216 213 213 216 218 225 221 225 229 230 225 226 238 231 234 234 229 236 233 235 239 240 240 243 247 244 248 250 253 256 258 262 264 266 271 271 274 268 261
322 351 322 266 255 212 213 214 219 221 220 226 225 228 230 228 224 242 240 229 234 235 230 233 237 239 241 240 243 246 249 251 254 256 258 259 263 261 272 270 272 276 280
326 343 298 311 263 215 212 214 216 219 222 220 224 225 241 233 233 223 238 238 231 235 237 239 239 235 241 240 241 242 246 251 253 256 257 261 264 265 266 271 271 278 280